Hauptseite
METAR-TAF:

METAR-TAF

Flughäfen :

Dakar, Senegal

Flughafen Dakar-Léopold Sédar Senghor

Breite: 14-44N, Länge: 017-30W, Höhe: 27 m

Beobachtung

Neuester Wetterbericht von vor 45 Minuten, um 14:00 UTC
Wind 12 kt aus Nord/Nordost
Temperatur 29°C
Luftfeuchtigkeit 58%
Luftdruck 1011 hPa
Sichtweite 10 km oder mehr
keine Wolken unter 1500 m und keine Kumulonimbus oder Gewitterwolken

METAR: GOOY 241400Z 02012KT CAVOK 29/20 Q1011 NOSIG

Zeit: 14:45 (14:45 UTC)

Prognose

Neuester Wetterbericht von vor 3 Stunden und 15 Minuten, um 11:30 UTC
Gültige Prognose vom 24 um 12 UTC bis 25 um 18 UTC
Wind 12 kt aus Nord/Nordost
Sichtweite 10 km oder mehr
keine Wolken unter 1500 m und keine Kumulonimbus oder Gewitterwolken

TAF: GOOY 241130Z 2412/2518 02012KT CAVOK

Wetterbeobachtungen und Prognosen von mehr als 4000 Flughäfen (METAR und TAF Bericht).

Die verfügbaren Stationen werden durch gelbe und rote Markierungen auf der Karte dargestellt.

Führen Sie die Maus auf sie, um den Namen der Station zu sehen.

Darauf klicken, um die Beobachtung von Wetterbeobachtungen und Prognosen zu sehen.

Um die Karte zu ändern : klicken Sie auf den grünen Tasten mit einem schwarzen Kreuz Zum Vergrößern, auf den grünen Button mit einem Gedankenstrich zu verkleinern, oder auf die grünen Pfeile für benachbarte Karten.


METAR-TAF: